Regional Weather Roundup
Issued by NWS

Home | Current Version | Previous Version | Graphics & Text | Print | Product List | Glossary On
Versions: 1 2 3 4 5 6 7 8 9 10 11 12 13 14 15 16 17 18 19 20 21 22 23 24 25 26 27 28 29 30 31 32 33 34 35 36 37 38 39 40 41 42 43 44 45 46 47 48 49 50
000
ASUS43 KIND 230909
RWRIN

WEATHER ROUNDUP FOR INDIANA
NATIONAL WEATHER SERVICE INDIANAPOLIS IN
500 AM EDT WED AUG 23 2017

NOTE: "FAIR" INDICATES FEW OR NO CLOUDS BELOW 12,000 FEET WITH NO
SIGNIFICANT WEATHER AND/OR OBSTRUCTIONS TO VISIBILITY.

* - STATION DOES NOT REPORT WEATHER SUCH AS PRECIPITATION OR FOG.

+ - STATION NOT QUALITY CONTROLLED BY THE NATIONAL WEATHER SERVICE.
    USE DATA WITH CAUTION...ESPECIALLY DEWPOINT AND RELATIVE
    HUMIDITY OBSERVATIONS.

INZ001>003-010>013-019-020-231000-
NORTHWEST INDIANA

CITY           SKY/WX    TMP DP  RH WIND       PRES   REMARKS
GARY /AIRPORT/ CLEAR     59  51  74 W5        30.02S
KNOX *+        CLEAR     54  52  94 W6        30.00S
LA PORTE +     CLEAR     57  53  85 W5        30.01S
MICHIGAN CITY+ CLEAR     64  54  68 NW7       30.00S
MONTICELLO +   CLEAR     57  55  95 CALM      30.01S
RENSSELAER +   CLEAR     55  50  82 W5        30.03S
VALPARAISO     CLEAR     61  53  75 NW5       30.01S

$$

LMZ046-743>745-231000-
SOUTHERN LAKE MICHIGAN

STATION/POSITION TIME  TEMP    WIND        PRES    WAVE
                       AIR SEA DIR/SP/G            HT
                 (UTC) (F)     (DEG/KT/KT) (MB)    (FT)
BURNS HARBOR     0840   70     320/ 15/ 19 1016.3R
MICHIGAN CITY    0840   69     310/ 17/ 19   N/A
5NW MICH CITY    0900   70 73  320/ 16/ 21   N/A     5

$$

INZ004-005-014>016-021>024-231000-
NORTH CENTRAL INDIANA

CITY           SKY/WX    TMP DP  RH WIND       PRES   REMARKS
GOSHEN         CLEAR     57  53  86 CALM      29.99S
LOGANSPORT +   MOCLDY    57  55  94 W5        30.02S
PERU/GRISSOM   CLEAR     59  59 100 W5        30.00S
ROCHESTER +    CLEAR     61  59  94 W5        30.00F
SOUTH BEND     CLEAR     56  55  97 W7        30.00S
WARSAW +       CLEAR     55  55 100 W3        29.99F

$$

INZ006>009-017-018-025>027-231000-
NORTHEAST INDIANA

CITY           SKY/WX    TMP DP  RH WIND       PRES   REMARKS
AUBURN +       CLEAR     55  54  94 SW3       29.99S
FORT WAYNE     CLEAR     55  53  93 W7        29.99S
HUNTINGTON +   CLEAR     58  57  96 W5        29.99F

$$

INZ028-029-035-036-043>045-051>053-231000-
WEST CENTRAL INDIANA

CITY           SKY/WX    TMP DP  RH WIND       PRES   REMARKS
GREENCASTLE +  CLEAR     59  55  88 CALM      30.02S
LAFAYETTE      PTCLDY    57  57 100 SW3       30.02R
TERRE HAUTE    CLEAR     60  55  83 N6        30.02S

$$

INZ030>032-037>040-046>048-054>057-064-065-231000-
CENTRAL INDIANA

CITY           SKY/WX    TMP DP  RH WIND       PRES   REMARKS
CP ATTERBURY + CLEAR     59  57  94 CALM      30.01R
FRANKFORT +    MOCLDY    59  58  97 CALM      30.03S
GREENWOOD *+   PTCLDY   N/A N/A N/A NW3       30.01F
INDIANAPOLIS   PTCLDY    60  57  89 NW8       30.00S
-EAGLE CREEK   CLEAR     62  58  86 NW7       30.00S
KOKOMO +       PTCLDY    59  58  96 W5        30.01F
MT COMFORT *+  PTCLDY    59  57  94 CALM      30.01S
SHELBYVILLE    CLEAR     61  57  87 N3        30.00R
ZIONSVILLE +   CLEAR     56  56  99 CALM      30.02S

$$

INZ033-034-041-042-049-050-058-059-231000-
EAST CENTRAL INDIANA

CITY           SKY/WX    TMP DP  RH WIND       PRES   REMARKS
MUNCIE         PTCLDY    56  53  90 CALM      30.00S FOG
RICHMOND +     CLEAR     59  55  88 N3        30.01R

$$

INZ060-061-067>069-081>083-085>088-231000-
SOUTHWEST INDIANA

CITY           SKY/WX    TMP DP  RH WIND       PRES   REMARKS
EVANSVILLE     CLEAR     65  59  81 N5        30.02S
HUNTINGBURG +  CLEAR     64  60  87 CALM      30.02S
WASHINGTON +   CLEAR     60  58  94 MISG      30.02R

$$

INZ062-063-066-070>080-084-089>092-231000-
SOUTH CENTRAL AND SOUTHEAST INDIANA

CITY           SKY/WX    TMP DP  RH WIND       PRES   REMARKS
BEDFORD +      CLEAR     63  57  82 CALM      30.00S
BLOOMINGTON    CLEAR     62  56  80 CALM      30.01S
MADISON *+     CLEAR     61  59  94 CALM      30.02R
NORTH VERNON + PTCLDY    57  57 100 CALM      30.01R
SEYMOUR +      CLEAR     61  59  94 CALM      30.00R

$$





USA.gov is the U.S. government's official web portal to all federal, state and local government web resources and services.